Overview Statistics Trail Chart Weather Telemetry Raw packets
 

This is the latest recevied weather packets stored in our database for station/object NL3D. If no packets are shown the sender has not sent any weather packets the latest 10 day(s).

<< 42 43 44 45 46 47 48 >>
Time Temp. Humidity Pressure Rain* Wind** Luminosity Snow
1777416949 8.89° C 53% 1014.6 hPa 0 mm - 189 W/m² -
1777416648 8.89° C 51% 1014.7 hPa 0 mm - 143 W/m² -
1777416344 8.89° C 51% 1014.6 hPa 0 mm - 146 W/m² -
1777416044 8.89° C 51% 1014.3 hPa 0 mm - 182 W/m² -
1777415740 8.89° C 50% 1014.3 hPa 0 mm - 187 W/m² -
1777415436 8.89° C 50% 1014.2 hPa 0 mm - 155 W/m² -
1777415131 8.89° C 53% 1014 hPa 0 mm - 171 W/m² -
1777414826 8.89° C 50% 1014.1 hPa 0 mm - 189 W/m² -
1777414521 9.44° C 49% 1013.8 hPa 0 mm - 191 W/m² -
1777414220 9.44° C 52% 1013.6 hPa 0 mm - 194 W/m² -
1777413916 9.44° C 50% 1013.9 hPa 0 mm - 208 W/m² -
1777413612 9.44° C 48% 1013.7 hPa 0 mm - 247 W/m² -
1777413308 9.44° C 50% 1013.6 hPa 0 mm - 319 W/m² -
1777413004 9.44° C 52% 1013.6 hPa 0 mm - 315 W/m² -
1777412704 9.44° C 50% 1013.3 hPa 0 mm - 318 W/m² -
1777412403 9.44° C 52% 1013.5 hPa 0 mm - 299 W/m² -
1777412101 9.44° C 55% 1013.6 hPa 0 mm - 299 W/m² -
1777411796 9.44° C 52% 1013.3 hPa 0 mm - 267 W/m² -
1777411496 9.44° C 55% 1013.3 hPa 0 mm - 307 W/m² -
1777411196 8.89° C 55% 1013.2 hPa 0 mm - 810 W/m² -
1777410891 9.44° C 58% 1013.3 hPa 0 mm - 467 W/m² -
1777410591 8.89° C 61% 1013 hPa 0 mm - 522 W/m² -
1777410290 8.89° C 56% 1013 hPa 0 mm - 369 W/m² -
1777409985 8.89° C 58% 1013.1 hPa 0 mm - 350 W/m² -
1777409680 9.44° C 58% 1012.8 hPa 0 mm - 308 W/m² -

* Rain latest hour (hover to see other rain measurements)
** Current wind speed in m/s (hover to see current wind gust speed)